N2PUI Weather Reports


time (UTC)temp
C
wind
direction
speed
KPH
gust
KPH
rain 1hr
cm
rain 24hr
cm
rain mn
cm
humidity
%
barometer
mb
20260504201631 21 174 6.4 11.3 0.00 0.00 0.00 36 1006.7
20260504201129 21 178 8.0 9.7 0.00 0.00 0.00 36 1006.8
20260504200626 22 249 3.2 4.8 0.00 0.00 0.00 36 1006.7
20260504200123 22 232 4.8 4.8 0.00 0.00 0.00 35 1006.9
20260504195618 22 240 12.9 22.5 0.00 0.00 0.00 34 1006.8
20260504195115 22 148 3.2 4.8 0.00 0.00 0.00 36 1007.0
20260504194612 22 208 1.6 1.6 0.00 0.00 0.00 37 1007.1
20260504194108 21 206 6.4 9.7 0.00 0.00 0.00 37 1007.1
20260504193604 21 231 6.4 9.7 0.00 0.00 0.00 37 1007.1
20260504193103 21 228 4.8 8.0 0.00 0.00 0.00 39 1007.3
20260504192601 21 214 6.4 8.0 0.00 0.00 0.00 39 1007.2
20260504192058 22 254 9.7 12.9 0.00 0.00 0.00 35 1007.4
20260504191556 22 252 8.0 9.7 0.00 0.00 0.00 36 1007.3
20260504191052 21 87 4.8 4.8 0.00 0.00 0.00 37 1007.3
20260504190549 21 224 6.4 8.0 0.00 0.00 0.00 38 1007.4
20260504190045 21 216 11.3 16.1 0.00 0.00 0.00 37 1007.5
20260504185542 21 216 12.9 14.5 0.00 0.00 0.00 39 1007.6
20260504185038 21 215 8.0 11.3 0.00 0.00 0.00 38 1007.5
20260504184534 21 200 8.0 9.7 0.00 0.00 0.00 39 1007.6
20260504184029 21 227 6.4 11.3 0.00 0.00 0.00 39 1007.6
20260504183527 21 187 11.3 16.1 0.00 0.00 0.00 40 1007.6
20260504183025 21 225 8.0 11.3 0.00 0.00 0.00 39 1007.6
20260504182521 20 154 9.7 12.9 0.00 0.00 0.00 40 1007.8
20260504182019 20 231 8.0 9.7 0.00 0.00 0.00 39 1008.0
20260504181516 20 186 1.6 1.6 0.00 0.00 0.00 43 1007.8
20260504181014 20 177 3.2 8.0 0.00 0.00 0.00 41 1007.7
20260504180513 20 210 4.8 8.0 0.00 0.00 0.00 40 1007.8
20260504180011 20 288 4.8 8.0 0.00 0.00 0.00 41 1007.9
20260504175508 20 231 4.8 9.7 0.00 0.00 0.00 39 1008.2
20260504175005 20 181 14.5 17.7 0.00 0.00 0.00 40 1008.1
20260504174503 21 181 4.8 4.8 0.00 0.00 0.00 39 1008.0
20260504174000 20 165 6.4 8.0 0.00 0.00 0.00 40 1008.0
20260504173456 20 211 4.8 8.0 0.00 0.00 0.00 40 1008.2
20260504172954 20 246 9.7 11.3 0.00 0.00 0.00 40 1008.3
20260504172449 20 215 11.3 14.5 0.00 0.00 0.00 41 1008.3
20260504171946 20 222 3.2 4.8 0.00 0.00 0.00 42 1008.4
20260504171443 20 236 17.7 20.9 0.00 0.00 0.00 40 1008.3
20260504170940 20 215 9.7 12.9 0.00 0.00 0.00 41 1008.1
20260504170436 19 256 4.8 8.0 0.00 0.00 0.00 42 1008.6
20260504160356 17 236 6.4 8.0 0.00 0.00 0.00 42 1009.4
20260504150820 16 158 8.0 11.3 0.00 0.00 0.00 45 1009.7
20260504150317 15 209 11.3 14.5 0.00 0.00 0.00 45 1009.7
20260504141247 15 197 3.2 4.8 0.00 0.00 0.00 46 1010.2
20260504140743 15 272 11.3 14.5 0.00 0.00 0.00 45 1010.3
20260504140239 14 225 11.3 14.5 0.00 0.00 0.00 45 1010.4
20260504130708 11 172 8.0 12.9 0.00 0.00 0.00 53 1010.7
20260504130203 10 79 3.2 3.2 0.00 0.00 0.00 54 1010.8
20260504120128 10 240 6.4 9.7 0.00 0.00 0.00 55 1011.4
20260504110555 9 175 6.4 8.0 0.00 0.00 0.00 55 1011.2
20260504100517 7 179 0.0 0.0 0.00 0.00 0.00 59 1011.1
20260504081904 7 291 3.2 4.8 0.00 0.00 0.00 58 1011.1
20260504081401 7 225 1.6 1.6 0.00 0.00 0.00 58 1011.2
20260504080857 7 125 3.2 3.2 0.00 0.00 0.00 58 1011.1
20260504080354 7 166 0.0 1.6 0.00 0.00 0.00 58 1011.3
20260504070321 8 194 0.0 1.6 0.00 0.00 0.00 56 1011.3
20260504060242 8 191 0.0 1.6 0.00 0.00 0.00 54 1011.1
20260504050710 8 265 9.7 12.9 0.00 0.00 0.00 55 1011.4
20260504050206 8 199 3.2 3.2 0.00 0.00 0.00 55 1011.3
20260504045703 8 187 0.0 0.0 0.00 0.00 0.00 57 1011.4
20260504045158 8 194 1.6 3.2 0.00 0.00 0.00 57 1011.3
20260504044656 8 172 1.6 1.6 0.00 0.00 0.00 56 1011.3
20260504044153 9 188 0.0 1.6 0.00 0.00 0.00 56 1011.0
20260504043650 10 187 0.0 1.6 0.00 0.00 0.00 54 1011.1
20260504043147 10 183 0.0 1.6 0.00 0.00 0.00 53 1011.0
20260504042644 10 193 1.6 1.6 0.00 0.00 0.00 53 1011.2
20260504042141 10 181 0.0 0.0 0.00 0.00 0.00 53 1011.0
20260504041637 10 181 0.0 0.0 0.00 0.00 0.00 53 1011.3
20260504041133 10 182 0.0 0.0 0.00 0.00 0.00 52 1011.2
20260504040630 10 272 3.2 4.8 0.00 0.00 0.00 51 1011.2
20260504040127 10 237 3.2 3.2 0.00 0.00 0.00 50 1011.4
20260504035624 10 167 0.0 0.0 0.00 0.00 0.00 52 1011.2
20260504035120 10 191 1.6 3.2 0.00 0.00 0.00 52 1011.2
20260504034619 11 196 0.0 0.0 0.00 0.00 0.00 52 1011.1
20260504034115 11 209 1.6 1.6 0.00 0.00 0.00 50 1011.2
20260504033613 11 194 1.6 1.6 0.00 0.00 0.00 49 1011.0
20260504033110 11 202 0.0 1.6 0.00 0.00 0.00 48 1011.0
20260504032607 11 211 1.6 1.6 0.00 0.00 0.00 47 1011.3
20260504032104 11 290 3.2 3.2 0.00 0.00 0.00 47 1011.3
20260504031601 11 206 3.2 4.8 0.00 0.00 0.00 47 1011.3
20260504031056 11 240 3.2 3.2 0.00 0.00 0.00 47 1011.4
20260504030554 11 246 4.8 4.8 0.00 0.00 0.00 47 1011.2
20260504030050 12 213 1.6 1.6 0.00 0.00 0.00 46 1011.4
20260504025548 12 254 11.3 12.9 0.00 0.00 0.00 45 1011.5
20260504025044 11 316 6.4 9.7 0.00 0.00 0.00 47 1011.4
20260504024542 11 272 8.0 11.3 0.00 0.00 0.00 47 1011.6
20260504024038 11 277 4.8 8.0 0.00 0.00 0.00 50 1011.7
20260504023535 11 273 3.2 3.2 0.00 0.00 0.00 51 1011.7
20260504023031 11 314 8.0 11.3 0.00 0.00 0.00 50 1011.7
20260504022526 11 236 4.8 4.8 0.00 0.00 0.00 50 1011.5
20260504022023 11 229 3.2 3.2 0.00 0.00 0.00 50 1011.7
20260504021521 11 265 12.9 14.5 0.00 0.00 0.00 50 1011.8
20260504021018 11 291 8.0 9.7 0.00 0.00 0.00 50 1011.8
20260504020514 11 351 11.3 12.9 0.00 0.00 0.00 50 1012.0
20260504020011 11 298 4.8 8.0 0.00 0.00 0.00 50 1011.9
20260504015507 11 307 4.8 8.0 0.00 0.00 0.00 49 1011.7
20260504015003 11 320 6.4 9.7 0.00 0.00 0.00 49 1011.7
20260504014459 11 233 3.2 3.2 0.00 0.00 0.00 50 1011.7
20260504013956 11 255 3.2 3.2 0.00 0.00 0.00 50 1011.8
20260504013455 11 308 9.7 11.3 0.00 0.00 0.00 49 1011.6
20260504012950 11 329 11.3 12.9 0.00 0.00 0.00 49 1011.7
20260504012449 11 293 12.9 16.1 0.00 0.00 0.00 49 1011.5
20260504011947 11 322 16.1 20.9 0.00 0.00 0.00 49 1011.9
20260504011442 11 335 9.7 11.3 0.00 0.00 0.00 51 1011.7
20260504010939 11 324 6.4 8.0 0.00 0.00 0.00 51 1011.5
20260504010434 11 230 1.6 1.6 0.00 0.00 0.00 52 1011.6
20260504005931 11 275 4.8 4.8 0.00 0.00 0.00 51 1011.4
20260504005428 11 196 1.6 1.6 0.00 0.00 0.00 50 1011.4
20260504004925 11 278 4.8 4.8 0.00 0.00 0.00 50 1011.6
20260504004423 11 3 6.4 9.7 0.00 0.00 0.00 49 1011.3
20260504003920 11 310 4.8 4.8 0.00 0.00 0.00 48 1011.4
20260504003416 11 306 12.9 16.1 0.00 0.00 0.00 47 1011.2
20260504002913 11 312 11.3 16.1 0.00 0.00 0.00 47 1011.3
20260504002410 11 234 6.4 9.7 0.00 0.00 0.00 47 1011.2
20260504001907 11 304 8.0 9.7 0.00 0.00 0.00 46 1011.2
20260504001405 11 262 17.7 20.9 0.00 0.00 0.00 46 1011.0
20260504000901 11 219 3.2 4.8 0.00 0.00 0.00 47 1011.1
20260504000358 11 295 4.8 4.8 0.00 0.00 0.00 51 1011.0
20260503235855 11 198 0.0 1.6 0.00 0.00 0.00 51 1010.9
20260503235353 11 143 1.6 3.2 0.00 0.00 0.00 51 1010.7
20260503234850 11 135 1.6 1.6 0.00 0.00 0.00 49 1010.6
20260503234348 11 153 0.0 0.0 0.00 0.00 0.00 49 1010.7
20260503233846 11 137 1.6 1.6 0.00 0.00 0.00 49 1010.6
20260503233342 12 195 0.0 1.6 0.00 0.00 0.00 48 1010.4
20260503232838 12 192 0.0 0.0 0.00 0.00 0.00 43 1010.4
20260503232335 13 260 6.4 8.0 0.00 0.00 0.00 41 1010.4
20260503231834 13 258 4.8 4.8 0.00 0.00 0.00 41 1010.3
20260503231330 13 245 3.2 3.2 0.00 0.00 0.00 42 1010.6
20260503230826 12 212 1.6 1.6 0.00 0.00 0.00 42 1010.5
20260503230323 12 247 4.8 4.8 0.00 0.00 0.00 42 1010.3
20260503225821 12 254 4.8 4.8 0.00 0.00 0.00 44 1010.4
20260503225317 12 201 1.6 1.6 0.00 0.00 0.00 44 1010.5
20260503224813 12 242 3.2 3.2 0.00 0.00 0.00 43 1010.5
20260503224311 12 287 8.0 11.3 0.00 0.00 0.00 43 1010.4
20260503223808 12 149 1.6 1.6 0.00 0.00 0.00 42 1010.7
20260503223306 13 312 6.4 9.7 0.00 0.00 0.00 42 1010.4
20260503222801 12 261 8.0 9.7 0.00 0.00 0.00 41 1010.4
20260503222300 13 313 11.3 14.5 0.00 0.00 0.00 41 1010.6
20260503221757 13 292 12.9 14.5 0.00 0.00 0.00 41 1010.6
20260503221255 13 286 11.3 11.3 0.00 0.00 0.00 40 1010.8
20260503220751 13 265 4.8 4.8 0.00 0.00 0.00 41 1010.7
20260503220249 13 317 4.8 4.8 0.00 0.00 0.00 41 1010.7
20260503215745 13 320 12.9 16.1 0.00 0.00 0.00 41 1010.8
20260503215242 13 275 11.3 14.5 0.00 0.00 0.00 42 1011.1
20260503214740 12 243 8.0 9.7 0.00 0.00 0.00 42 1010.9
20260503214237 12 276 11.3 14.5 0.00 0.00 0.00 43 1010.8
20260503213735 12 273 12.9 16.1 0.00 0.00 0.00 43 1010.8
20260503213232 12 283 11.3 14.5 0.00 0.00 0.00 43 1010.9
20260503212729 12 248 6.4 9.7 0.00 0.00 0.00 44 1010.8
20260503212227 12 324 8.0 8.0 0.00 0.00 0.00 44 1010.7
20260503211724 12 277 4.8 8.0 0.00 0.00 0.00 44 1010.8
20260503211220 12 238 8.0 11.3 0.00 0.00 0.00 45 1010.9
20260503210715 11 336 6.4 8.0 0.00 0.00 0.00 45 1010.9
20260503210213 11 331 14.5 14.5 0.00 0.00 0.00 45 1011.0
20260503205708 11 304 6.4 8.0 0.00 0.00 0.00 46 1010.9
20260503205205 11 282 4.8 4.8 0.00 0.00 0.00 45 1011.1
20260503204701 11 292 12.9 22.5 0.00 0.00 0.00 43 1010.7
20260503204159 11 259 9.7 11.3 0.00 0.00 0.00 43 1010.7
20260503203656 11 304 9.7 14.5 0.00 0.00 0.00 42 1010.7
20260503203154 12 256 11.3 14.5 0.00 0.00 0.00 41 1010.9
20260503202650 12 258 8.0 12.9 0.00 0.00 0.00 41 1010.7
20260503202148 12 258 4.8 9.7 0.00 0.00 0.00 40 1010.8